Temp
102 102 102 99 95 94 92 92 90 88 85 82 83 84 82 82 83 85 85 86 88 87 88 87 86 85 85 85 84 84 84 83 83
101 101 102 99 98 96 93 92 90 88 85 83 84 84 83 82 82 84 84 84 86 88 86 91 88 85 85 84 85 84 83 84 82
101 102 101 101 99 97 95 95 93 91 88 84 84 85 85 85 83 84 85 85 84 85 87 86 89 85 85 85 85 85 83 83 83
101 101 101 102 101 100 97 97 95 93 90 87 86 85 85 85 85 84 84 85 85 86 86 87 86 86 85 84 84 84 83 82 83
102 102 101 103 102 101 99 96 96 94 93 91 88 87 85 85 85 85 85 84 85 86 86 86 86 86 85 85 84 84 83 82 84
98 100 101 102 103 101 99 98 96 96 94 94 93 88 88 87 86 85 85 84 85 86 85 86 87 87 85 84 85 83 84 83 83
99 98 98 100 101 99 100 98 95 95 96 97 95 93 90 86 86 86 86 86 85 85 86 84 86 86 85 86 85 85 85 84 83
97 97 99 99 100 95 95 95 94 95 97 95 97 92 90 88 87 87 86 85 85 85 85 86 85 85 86 85 86 88 84 84 83
92 93 97 99 100 100 99 97 95 95 95 97 96 91 91 89 87 86 86 85 85 85 85 85 85 84 85 85 88 79 75 82 84
93 94 96 97 99 99 98 99 97 95 94 96 94 91 91 90 87 86 85 86 85 84 84 85 84 84 85 84 85 74 72 74 86
94 95 96 97 100 98 97 103 104 99 98 92 91 90 89 90 88 86 86 85 85 84 85 84 84 84 84 84 85 72 68 71 83
95 96 96 97 101 100 96 98 98 96 95 92 91 90 88 89 89 87 86 85 84 85 85 84 85 85 84 83 84 68 66 68 82
90 91 92 92 94 96 100 101 102 99 95 93 89 90 89 90 88 87 86 86 84 85 85 85 86 85 85 80 84 70 63 67 84
87 89 91 93 92 90 93 93 94 91 95 92 93 92 92 89 88 87 86 86 85 85 85 85 84 84 85 85 83 83 62 60 82
84 86 90 93 92 91 94 95 92 88 89 93 94 92 89 88 88 89 90 85 85 85 84 82 82 82 83 86 85 70 66 59 62
83 88 90 91 90 90 93 93 91 88 88 92 93 92 88 88 88 87 86 85 84 84 83 83 82 83 83 84 86 87 64 59 59
79 85 85 86 86 88 86 87 88 89 90 92 92 91 88 88 87 85 86 88 87 86 85 84 83 84 84 85 86 87 88 79 68
77 79 79 81 83 86 83 83 83 85 85 86 88 89 88 87 88 85 86 86 87 86 86 84 87 86 86 85 85 72 57 61 75
75 76 78 78 80 83 79 79 79 82 84 85 85 86 87 88 89 88 87 86 85 69 63 56 49 50 63 74 55 48 46 47 50
70 73 76 76 77 74 76 77 80 82 83 84 83 84 86 86 83 88 86 86 86 83 64 52 51 48 47 47 45 45 44 43 44
MSLP
992.17 993.29 994.52 996.29 998.19 999.88 1001.41 1002.79 1003.98 1005.19 1006.53 1007.54 1008.54 1009.39 1010.27 1010.89 1011.42 1011.66 1011.93 1011.92 1011.96 1012.28 1012.45 1012.90 1013.13 1013.80 1014.27 1014.73 1015.24 1015.72 1015.98 1016.64 1017.05
990.86 991.99 993.25 994.97 996.75 998.75 1000.29 1001.71 1002.94 1004.00 1005.41 1006.68 1007.57 1008.51 1009.43 1010.15 1010.77 1010.86 1011.15 1011.50 1011.56 1011.80 1012.03 1012.06 1012.33 1013.04 1013.69 1014.29 1014.75 1015.17 1015.83 1016.16 1016.58
989.91 991.08 992.37 993.90 995.69 997.44 999.05 1000.24 1001.73 1003.18 1004.37 1005.56 1006.23 1007.26 1008.19 1008.93 1009.49 1010.03 1010.33 1010.76 1011.10 1011.29 1011.46 1011.73 1011.91 1012.48 1013.13 1013.79 1014.37 1014.89 1015.40 1015.63 1015.95
989.43 990.31 991.51 992.92 994.59 996.25 997.80 999.46 1000.77 1002.14 1003.45 1004.63 1005.71 1006.31 1006.89 1007.64 1008.51 1009.36 1009.78 1010.01 1010.39 1010.69 1011.11 1011.35 1011.54 1012.18 1012.75 1013.21 1013.62 1014.18 1014.62 1014.91 1015.11
989.36 990.08 991.05 992.08 993.53 995.16 996.92 998.36 999.63 1000.74 1002.17 1003.25 1004.23 1005.26 1006.16 1006.96 1007.60 1008.12 1008.69 1009.26 1009.52 1009.96 1010.38 1010.77 1011.15 1011.49 1011.93 1012.32 1012.80 1013.32 1013.84 1014.20 1014.45
989.27 990.02 990.70 991.64 992.80 994.25 995.66 996.97 998.23 999.41 1000.64 1001.70 1003.20 1004.57 1005.50 1006.17 1006.67 1007.09 1007.51 1008.19 1008.77 1009.16 1009.75 1010.11 1010.42 1010.64 1011.01 1011.63 1012.10 1012.54 1013.04 1013.61 1013.99
989.27 989.94 990.63 991.35 992.18 993.41 994.57 995.93 997.03 998.20 999.38 1000.57 1001.96 1003.18 1004.21 1005.00 1005.47 1006.13 1006.82 1007.38 1007.90 1008.45 1008.80 1009.15 1009.30 1009.74 1010.21 1010.60 1011.04 1011.48 1011.97 1012.53 1013.01
989.53 990.08 990.58 991.24 991.80 992.70 993.70 994.71 996.06 997.18 998.10 999.27 1000.30 1001.54 1002.59 1003.19 1004.21 1004.93 1005.73 1006.33 1006.88 1007.51 1007.87 1007.91 1008.44 1008.89 1009.18 1009.66 1010.05 1010.38 1010.89 1011.39 1011.83
990.70 991.14 991.42 991.87 992.39 993.02 993.67 994.38 995.18 996.21 997.17 997.95 999.05 1000.06 1000.70 1001.70 1002.75 1003.71 1004.47 1005.19 1005.70 1006.16 1006.52 1007.09 1007.59 1007.85 1008.29 1008.54 1008.77 1008.99 1009.51 1010.12 1010.60
991.64 992.06 992.29 992.55 992.84 993.31 993.80 994.24 994.85 995.52 996.34 997.10 997.96 998.84 999.61 1000.41 1001.40 1002.26 1003.02 1003.82 1004.49 1004.89 1005.49 1006.17 1006.46 1006.95 1007.29 1007.39 1007.55 1007.77 1008.26 1008.86 1009.45
992.32 992.68 992.87 993.02 993.11 993.33 993.50 993.77 994.36 995.05 995.81 996.77 997.41 998.12 998.79 999.47 1000.25 1001.06 1001.94 1002.72 1003.25 1003.99 1004.52 1004.82 1005.39 1005.81 1006.14 1006.54 1006.42 1006.78 1007.35 1007.97 1008.56
993.08 993.45 993.54 993.57 993.46 993.28 993.32 993.54 993.92 994.52 995.07 995.87 996.77 997.50 998.09 998.67 999.34 1000.07 1000.82 1001.39 1002.11 1002.92 1003.61 1004.04 1004.24 1004.65 1005.17 1005.34 1005.38 1005.99 1006.67 1007.60 1007.91
994.41 994.56 994.49 994.31 994.03 993.61 993.24 993.21 993.24 993.85 994.83 995.41 996.14 996.57 997.14 997.97 998.64 999.17 999.66 1000.36 1001.22 1002.02 1002.64 1003.10 1003.67 1003.74 1003.88 1004.20 1004.56 1005.19 1005.86 1006.72 1007.12
995.32 995.16 994.80 994.58 994.45 994.19 993.90 994.03 993.96 994.16 994.24 994.65 995.09 995.78 996.57 997.26 997.79 998.32 998.99 999.83 1000.57 1001.32 1001.95 1002.51 1002.84 1003.06 1003.26 1003.34 1003.61 1004.13 1004.89 1005.85 1005.97
995.91 995.46 995.00 994.62 994.36 994.29 993.99 993.96 994.30 994.56 994.64 994.65 994.93 995.08 995.79 996.55 997.21 997.88 998.52 999.29 1000.00 1000.67 1001.37 1001.89 1002.21 1002.48 1002.60 1002.56 1002.79 1003.20 1003.67 1004.52 1004.93
996.45 995.59 995.13 994.97 994.74 994.37 994.25 994.31 994.75 994.86 994.96 994.91 994.96 995.07 995.49 996.17 996.82 997.54 998.16 998.73 999.46 1000.12 1000.71 1001.17 1001.51 1001.81 1001.96 1001.98 1002.23 1002.27 1002.71 1003.43 1003.98
997.75 996.60 996.21 996.13 995.65 995.02 995.16 995.36 995.39 995.25 995.09 994.97 995.08 995.12 995.53 996.10 996.70 997.35 997.90 998.39 998.85 999.49 999.94 1000.53 1001.04 1001.26 1001.36 1001.58 1001.71 1001.78 1001.53 1001.82 1002.58
998.92 998.16 997.95 997.36 996.60 996.00 996.26 996.45 996.45 996.31 996.09 995.75 995.33 995.35 995.69 996.10 996.62 997.20 997.67 998.09 998.30 998.86 999.18 999.73 1000.36 1000.81 1001.01 1001.24 1001.54 1002.69 1003.14 1002.78 1002.35
1000.00 999.31 998.89 998.38 997.73 997.22 997.43 997.55 997.52 997.02 996.68 996.28 995.73 995.72 995.89 996.06 996.33 996.73 997.33 997.58 998.10 998.30 999.27 1000.40 1001.09 1001.50 1001.64 1001.79 1002.80 1002.94 1002.72 1002.30 1001.76
1000.27 1000.02 999.10 998.62 998.25 998.41 998.39 998.17 997.82 997.48 997.08 996.73 996.41 996.23 996.00 996.12 996.27 996.35 996.65 997.12 997.64 998.76 1000.77 1000.81 1000.97 1001.56 1002.10 1002.57 1003.00 1002.65 1002.46 1002.23 1001.98
Wind_Speed
23 22 23 25 27 23 24 22 23 23 23 23 22 20 19 17 14 11 12 9 9 8 8 9 11 13 11 11 11 9 7 7 6
23 23 22 26 25 24 23 22 23 24 23 22 22 22 18 18 17 15 14 12 9 8 8 6 8 15 13 12 10 11 8 6 9
19 22 21 23 24 24 23 24 22 22 22 23 25 23 20 18 20 17 14 14 11 12 9 10 4 15 14 13 12 10 11 8 7
17 20 22 21 23 23 24 21 21 22 21 22 21 22 22 21 18 19 18 14 15 12 12 7 11 10 14 13 13 12 11 11 10
15 15 20 20 22 22 22 23 22 23 22 21 22 20 19 20 19 19 20 19 17 16 12 14 10 10 11 12 14 13 14 14 13
18 13 15 19 21 20 22 23 22 23 23 23 20 19 19 19 20 20 20 19 19 17 17 14 16 13 13 14 14 15 15 14 14
10 12 10 17 18 20 20 21 21 20 22 21 20 20 20 20 20 19 18 17 18 19 17 18 17 17 15 16 16 16 16 16 15
8 12 8 8 13 16 18 17 19 18 20 21 21 21 22 22 20 19 18 18 17 17 19 19 18 17 17 17 16 15 17 17 17
8 9 5 4 4 3 5 10 14 19 18 18 19 19 21 21 19 19 19 18 18 18 20 19 18 19 18 19 15 19 21 20 17
6 2 1 3 2 5 5 6 8 13 15 13 14 18 18 18 18 19 20 19 19 20 19 18 19 19 19 20 20 20 22 23 17
4 4 5 4 7 7 7 10 13 9 12 12 12 10 11 14 15 18 18 19 19 18 17 19 18 18 19 19 18 18 20 22 21
3 5 7 7 9 9 8 10 11 15 14 15 14 15 13 12 13 15 17 19 20 17 16 17 17 17 18 20 20 17 18 16 18
12 12 10 9 12 11 6 1 5 6 13 12 15 16 15 13 14 15 17 17 17 15 14 15 13 16 18 19 19 16 18 18 13
11 10 9 7 7 9 5 6 7 7 3 8 14 14 12 12 13 15 14 12 13 13 13 13 15 16 15 17 17 17 16 20 17
13 12 11 9 6 6 7 3 4 6 6 4 4 8 12 11 11 11 10 11 10 12 12 13 13 13 13 12 14 16 15 20 24
15 11 6 8 9 6 5 3 5 4 5 4 4 4 7 8 9 10 9 11 11 9 11 11 11 11 11 10 9 10 17 19 22
16 14 9 9 12 7 7 6 6 3 4 2 3 3 5 5 7 8 9 7 10 10 10 10 10 9 9 9 9 9 10 9 12
14 12 14 12 10 4 5 5 5 5 5 6 2 2 4 4 5 7 7 7 7 9 10 7 8 9 8 8 6 4 3 2 3
12 12 10 10 8 4 7 7 5 5 3 4 5 6 5 6 7 7 7 7 7 8 3 12 15 13 8 5 11 9 9 11 11
9 13 11 8 4 5 4 3 3 1 1 3 4 3 3 4 1 4 8 6 6 8 9 14 15 14 13 12 3 11 12 12 11
Wind_Direction
185 187 179 172 173 177 181 188 182 180 181 184 187 194 197 205 218 198 217 228 198 220 199 197 182 192 184 186 185 204 205 179 207
185 186 181 172 170 177 179 183 185 184 183 188 189 192 194 200 205 211 208 224 221 198 222 211 184 183 188 187 192 190 206 203 189
188 181 177 170 173 176 178 185 184 187 185 189 189 190 196 199 199 204 210 204 223 218 206 224 211 179 187 186 191 192 198 200 213
198 187 173 172 171 178 181 179 182 188 191 188 193 196 197 200 200 202 207 213 203 218 218 212 219 184 186 189 191 197 202 208 203
211 198 172 171 171 177 175 180 184 189 190 195 197 196 199 202 201 203 205 210 213 204 211 212 223 199 192 190 194 199 206 208 217
192 201 190 175 168 178 180 183 186 188 192 197 192 196 200 204 208 207 209 205 212 210 206 217 209 212 204 199 200 201 205 210 213
198 191 204 171 176 178 183 186 187 189 190 193 194 191 199 206 209 211 210 210 208 211 213 208 217 214 204 206 206 206 207 207 214
171 166 164 152 187 175 184 180 182 189 192 189 191 197 196 205 206 206 211 207 210 210 212 218 212 215 217 210 210 210 208 209 210
64 46 112 139 136 128 134 167 173 183 192 191 191 195 202 202 200 203 205 210 208 209 212 215 217 215 215 217 215 209 202 206 212
116 155 331 328 181 173 186 191 174 177 188 191 192 197 201 203 198 202 203 204 209 211 212 211 218 219 218 220 221 211 201 200 213
163 221 248 271 242 226 245 199 204 191 178 190 202 201 203 197 196 199 200 203 209 212 211 214 215 218 221 226 227 214 204 200 214
276 278 288 286 266 264 221 195 208 195 197 186 192 207 212 205 196 198 198 205 206 209 213 214 217 220 221 226 231 213 203 192 216
11 353 359 345 338 346 288 263 248 156 190 184 196 207 210 207 208 204 207 204 206 208 213 219 218 224 225 228 234 220 202 193 220
355 331 317 315 321 312 340 355 350 336 260 200 198 202 204 202 206 212 207 204 201 206 212 219 220 229 228 233 232 234 200 191 219
341 324 315 301 274 278 290 326 304 286 276 285 304 180 189 193 205 203 202 201 199 203 210 219 227 227 234 237 236 229 212 195 213
325 301 312 353 324 325 307 92 351 319 297 282 259 203 169 183 185 192 209 192 199 204 211 220 221 226 238 240 237 245 216 197 205
335 344 14 342 320 302 68 33 356 318 354 325 224 205 160 172 178 188 198 213 194 205 210 215 225 236 232 233 234 238 233 217 211
322 339 355 341 327 9 52 32 11 12 6 336 241 186 162 173 194 183 194 209 224 199 213 225 222 217 227 243 259 67 313 335 345
323 312 314 314 319 353 44 35 12 338 6 332 312 175 181 187 204 181 202 194 214 234 147 85 85 74 51 42 69 360 353 334 318
297 284 278 276 330 68 69 37 277 308 38 53 29 53 34 127 144 354 173 204 187 207 69 96 103 99 85 75 46 19 16 1 338